EHI
0 0 0 0 0 0 0 0 0 0 0 0 0 1 3 6 6 4 5 5 4 3 3 3 4 3 3 3 3 4 4 5 6 8 10 10 9 7 7 6 6 5 4 3
0 0 0 0 0 0 0 0 0 0 0 0 1 1 3 5 5 5 5 5 4 3 3 3 3 3 3 3 3 4 6 7 7 8 10 11 10 8 7 7 7 7 6 5
0 0 0 0 0 0 0 0 0 0 0 0 1 2 4 4 4 5 6 5 4 3 2 2 2 1 2 3 4 6 7 8 8 8 9 11 12 9 7 7 8 8 7 7
0 0 0 0 0 0 0 0 0 0 0 0 2 3 4 3 2 3 5 5 3 2 2 2 1 1 1 3 5 7 7 8 8 8 9 11 12 11 8 7 7 7 6 6
0 0 0 0 0 0 0 0 0 0 0 1 3 4 4 2 1 3 4 4 3 2 2 2 2 1 1 3 5 6 7 7 8 8 9 11 12 11 9 7 6 5 6 6
0 0 0 0 0 0 0 0 0 0 1 3 4 3 3 3 3 3 4 3 2 2 2 2 2 2 2 2 3 4 5 6 6 6 7 9 10 10 8 6 5 5 5 5
0 0 0 0 0 0 0 0 1 1 2 3 3 3 3 3 4 5 4 2 1 1 1 1 1 1 1 1 1 1 2 3 4 4 5 6 8 9 8 6 4 3 3 2
0 0 0 0 0 0 0 0 1 1 1 2 3 3 3 4 5 5 3 1 0 0 0 0 0 0 0 0 0 0 1 1 2 3 3 4 6 8 9 7 4 2 1 0
0 0 0 0 0 0 0 0 1 1 1 2 3 3 4 5 5 4 2 1 0 0 0 0 0 0 0 0 0 0 1 1 1 2 2 3 4 6 7 7 5 2 1 0
0 0 0 0 0 0 0 0 1 1 2 3 4 4 4 5 4 2 1 0 0 0 0 0 0 0 0 0 0 0 1 2 2 2 1 1 1 2 4 5 5 3 1 0
0 0 0 0 0 0 1 1 2 4 4 4 4 4 5 4 2 1 0 0 0 0 0 0 0 0 0 0 0 0 0 1 2 1 0 0 0 0 2 3 3 2 1 0
0 0 0 0 0 1 2 3 4 6 6 3 2 3 3 2 1 0 0 0 0 0 0 0 0 0 0 0 0 0 0 0 0 0 0 0 0 0 0 1 1 1 0 0
0 0 0 0 0 1 2 4 5 7 6 2 0 1 1 1 0 0 0 0 0 0 0 0 0 0 0 0 0 0 0 0 0 0 0 0 0 0 0 0 0 0 0 0
0 0 0 0 0 1 2 3 5 5 3 1 0 1 2 2 1 0 0 1 1 1 0 0 0 0 0 0 0 0 0 0 0 0 0 0 0 0 0 0 0 0 0 0
0 0 0 0 0 0 1 1 3 3 2 0 1 2 3 2 1 0 0 1 2 1 0 0 0 0 0 0 0 0 0 0 0 0 0 0 0 0 0 0 1 1 0 0
0 0 0 1 1 1 1 1 1 2 2 1 1 2 3 3 1 0 0 1 2 1 0 0 0 0 0 0 0 0 0 0 0 0 0 0 0 0 0 0 1 1 1 0
0 0 1 2 2 2 2 2 2 2 2 1 0 1 3 3 2 0 0 1 1 1 0 0 0 0 0 0 0 0 0 0 0 0 0 0 0 0 0 0 1 1 1 0
0 1 2 3 3 3 3 2 2 1 1 0 0 1 2 2 1 1 1 1 2 1 0 0 0 0 0 0 0 0 0 0 0 0 0 0 0 0 0 0 0 1 2 1
1 2 3 3 3 2 1 1 1 0 0 0 0 0 1 1 1 1 2 2 1 1 0 0 0 0 0 0 0 0 0 0 0 0 0 0 0 0 0 0 1 2 2 1
3 3 3 2 1 1 0 0 0 0 0 0 0 0 0 0 0 1 2 1 0 0 0 0 0 0 0 0 0 0 0 0 0 0 0 0 0 0 0 1 2 3 3 2
3 2 1 1 0 0 0 0 0 0 0 0 0 0 0 0 0 0 1 1 0 0 0 0 0 0 0 0 0 0 0 0 0 0 0 0 0 0 0 1 3 3 3 3
2 1 0 0 0 0 0 0 0 0 0 0 0 0 1 0 0 0 0 0 0 0 0 0 0 0 0 0 0 0 0 0 0 0 0 0 0 0 1 2 3 3 3 3
1 0 0 0 0 0 0 0 0 0 0 0 0 0 1 1 1 1 0 0 0 0 0 0 0 0 0 0 0 0 0 0 0 0 0 0 0 0 1 2 2 2 2 2
0 0 0 0 0 0 0 0 0 0 0 0 0 1 1 2 2 2 1 0 0 0 0 0 0 0 0 0 0 0 0 0 0 0 0 0 0 0 0 1 1 0 1 1
0 0 0 0 0 0 0 0 0 0 0 0 1 1 1 2 2 2 2 1 0 0 0 0 0 0 0 0 0 0 0 0 0 0 0 0 0 0 0 0 0 0 0 0
0 0 0 0 0 0 0 0 0 0 0 0 1 2 2 3 2 2 1 1 0 0 0 0 0 0 0 0 0 0 0 0 0 0 0 0 0 0 0 0 0 0 0 0
0 0 0 0 0 0 0 0 0 0 0 0 0 1 3 3 2 1 1 0 0 0 0 0 0 0 0 0 0 0 0 0 0 0 0 0 0 0 0 0 0 0 0 0
Wind_Speed
3 3 2 2 2 4 5 6 7 6 7 8 6 5 4 4 3 3 3 3 4 4 2 2 2 2 2 1 1 2 2 1 1 0 0 1 1 1 1 1 1 1 2 2
1 1 1 1 2 3 3 3 3 2 6 5 2 2 3 4 5 4 4 4 4 3 3 3 3 3 2 2 1 2 2 1 0 0 1 1 1 1 1 1 1 1 1 1
2 3 2 3 4 4 3 3 5 6 7 2 2 4 5 5 5 5 4 3 3 3 3 3 3 3 3 2 2 2 1 0 0 0 0 1 0 1 1 1 1 1 1 1
2 2 3 7 3 4 4 3 3 4 3 3 4 3 1 2 5 5 4 4 3 3 3 2 2 2 2 2 2 2 1 1 0 0 1 1 0 1 1 1 0 1 1 2
3 2 4 5 2 3 3 2 2 3 2 3 4 3 2 1 2 4 5 4 3 3 3 3 3 3 3 2 2 1 1 1 1 1 1 1 1 2 1 1 1 1 1 2
4 3 5 7 3 1 4 3 3 4 5 5 5 2 4 2 3 3 3 3 3 3 4 3 2 3 3 2 1 1 1 1 1 1 1 1 2 2 1 1 1 1 2 2
4 3 7 6 3 2 3 7 3 5 5 6 5 5 3 4 3 4 3 4 4 4 3 2 2 3 3 1 1 2 1 1 1 1 2 2 2 1 1 1 1 1 2 2
4 2 7 3 2 5 7 3 3 4 5 5 4 3 3 4 5 5 4 4 4 4 2 1 2 3 2 2 2 1 1 0 1 1 2 1 1 1 0 0 1 1 2 3
7 7 6 3 5 4 2 3 3 4 4 5 5 4 4 4 4 4 4 4 3 4 2 1 1 2 2 2 1 1 1 0 1 1 1 1 1 1 1 0 1 1 1 2
3 6 5 4 3 1 2 2 2 4 5 6 5 5 4 4 4 4 3 3 3 3 2 1 1 2 2 2 1 1 1 1 1 1 1 1 1 1 1 1 1 2 2 2
3 5 5 4 3 2 1 1 3 3 4 6 7 5 4 4 4 4 3 3 3 3 3 2 1 1 1 1 2 2 1 0 1 1 1 1 1 1 1 2 3 3 2 2
6 6 4 6 4 2 2 3 4 4 3 3 6 6 5 4 4 4 3 3 3 3 2 2 1 1 1 1 2 2 1 1 1 1 1 1 1 2 2 2 3 3 4 3
6 4 4 5 4 3 3 3 3 4 5 5 4 5 6 4 3 3 3 3 4 4 3 2 1 1 1 1 2 2 2 2 1 1 1 1 1 1 2 4 3 2 3 3
4 1 2 3 3 2 1 2 2 3 3 4 4 4 5 4 4 4 4 4 4 3 2 2 2 2 2 1 2 2 2 3 2 2 2 2 2 2 2 2 3 3 3 3
3 2 3 3 1 0 1 3 4 3 3 3 3 4 5 5 4 4 3 3 3 2 1 1 2 2 2 1 2 2 2 2 2 2 2 2 2 2 2 2 2 3 3 3
2 1 0 1 1 1 2 3 3 2 3 3 3 4 4 5 4 3 2 3 4 3 2 2 2 2 1 1 1 1 1 3 2 1 1 1 1 2 2 2 2 2 3 3
1 1 1 1 2 2 3 3 4 3 3 4 4 4 4 4 4 3 2 2 3 2 2 3 3 2 1 1 1 1 1 1 2 1 1 1 1 2 2 2 2 2 3 3
5 5 5 5 5 4 3 3 3 3 3 3 4 4 4 5 5 4 3 2 2 0 1 2 1 1 1 1 1 1 1 1 1 1 1 1 1 1 2 2 2 2 3 3
3 3 3 3 4 4 4 3 3 3 3 3 5 5 4 4 4 3 3 3 2 2 2 1 1 1 1 1 1 1 1 1 1 1 1 1 1 1 1 1 2 2 3 2
1 1 1 1 2 3 4 3 3 3 3 4 5 4 3 2 3 3 3 3 3 2 2 1 1 1 1 1 2 1 1 1 1 1 0 0 1 1 1 2 2 2 2 2
1 1 1 2 2 2 3 4 4 4 3 4 5 5 4 2 2 3 3 1 1 0 1 2 1 1 1 1 1 1 1 1 1 1 0 1 1 1 1 1 2 2 2 3
0 0 1 2 2 1 1 2 3 4 4 4 4 4 4 3 2 2 1 1 1 1 1 1 1 1 2 2 1 1 1 1 1 1 1 1 1 1 1 2 2 2 3 3
1 0 1 2 2 2 1 1 3 4 5 5 5 5 4 3 3 3 1 1 1 2 2 1 2 3 3 2 1 1 1 1 1 1 1 1 1 2 2 2 2 3 3 3
1 0 1 2 3 3 2 1 1 2 3 3 3 4 4 3 1 1 1 2 2 3 2 2 3 3 3 1 1 1 1 1 1 1 1 1 1 2 2 2 2 3 3 4
0 1 1 3 2 1 2 2 1 2 2 2 2 2 2 2 2 2 2 2 3 3 1 1 2 3 2 1 1 1 1 1 1 1 1 1 2 2 2 2 3 3 4 4
1 0 1 1 1 1 1 2 2 1 2 1 1 1 1 1 2 2 2 2 2 2 1 1 1 2 1 1 1 1 1 1 1 1 1 2 2 2 3 3 4 3 4 4
1 1 0 1 0 1 1 2 2 2 2 3 2 2 2 2 2 2 2 2 2 2 2 2 2 2 2 1 1 2 1 1 1 1 2 2 2 3 3 4 3 3 3 4
Wind_Direction
221 239 214 219 206 173 177 187 190 225 219 244 240 210 189 168 158 153 168 175 183 187 186 177 167 165 162 157 140 133 128 129 218 272 358 15 19 25 36 41 35 29 17 6
304 289 229 263 276 190 199 190 207 225 253 250 223 141 152 164 165 172 184 189 189 181 168 168 171 170 161 158 151 135 137 183 236 46 42 7 343 21 33 29 26 32 8 0
249 299 43 283 246 201 195 197 177 209 236 188 166 177 183 184 178 176 177 182 177 175 172 173 174 167 167 176 149 133 147 174 39 64 9 314 319 20 1 7 34 11 346 342
146 71 223 243 255 194 181 227 213 232 237 189 181 164 156 177 176 172 170 167 162 154 152 151 150 154 150 139 138 146 153 192 220 194 251 284 352 326 312 308 324 316 329 325
125 171 268 287 255 183 168 268 221 190 168 132 120 82 354 263 165 168 167 165 157 147 139 134 140 147 134 128 135 143 188 228 233 215 229 264 286 279 280 301 315 321 327 319
128 155 224 246 261 197 112 288 243 171 163 150 119 131 248 206 142 130 124 127 127 116 109 117 131 131 131 144 148 195 234 244 241 207 215 236 252 260 275 278 283 308 330 328
149 198 253 254 265 111 159 239 220 177 173 164 174 195 190 149 138 136 133 130 126 122 126 141 138 132 141 161 210 226 220 219 254 239 227 231 245 256 290 306 326 329 332 333
144 183 253 262 137 181 215 224 167 184 183 169 165 144 136 140 140 138 132 130 130 129 133 135 129 130 149 219 235 201 156 196 274 284 270 254 242 278 288 276 333 326 332 332
188 213 243 241 221 242 192 186 195 183 178 154 147 155 149 143 144 146 144 145 139 138 136 124 140 152 187 245 231 110 108 255 297 318 323 314 243 256 281 269 272 298 306 310
260 270 271 272 264 264 208 215 199 168 157 151 152 156 152 146 144 145 147 147 135 130 148 198 221 200 209 229 176 140 154 275 314 341 341 340 313 254 236 256 263 273 279 287
264 280 309 309 274 240 194 150 131 138 151 156 146 151 156 154 156 156 153 147 143 155 177 212 212 229 243 203 150 148 166 245 335 343 330 327 317 290 260 253 239 240 250 253
230 234 219 259 268 223 178 194 172 152 146 150 150 155 151 152 157 152 155 159 156 162 180 211 208 238 256 215 163 162 190 234 236 250 289 300 319 330 330 281 284 252 235 235
235 250 236 258 269 240 205 204 195 165 155 152 150 147 146 146 152 149 150 160 174 184 193 197 205 242 258 226 178 183 203 224 233 236 252 266 279 296 313 326 324 298 283 271
240 228 272 268 265 259 166 136 121 110 118 138 144 140 140 136 140 155 172 180 176 171 183 189 194 247 259 219 203 218 222 225 224 226 233 239 247 256 260 278 304 312 308 294
271 230 233 254 277 93 120 118 117 122 125 126 135 146 148 147 160 180 178 156 136 137 171 181 208 259 265 199 194 210 220 232 230 224 231 239 245 250 257 260 271 287 304 314
302 337 225 171 164 148 137 133 139 160 156 150 150 158 158 152 150 146 144 145 147 173 204 204 231 254 238 195 196 221 236 242 239 224 236 243 246 249 257 261 267 274 282 289
156 251 239 224 206 186 177 177 177 185 177 168 172 160 147 139 137 153 173 171 168 187 203 208 229 244 213 187 187 220 236 257 256 225 234 245 249 259 264 260 265 274 281 287
220 215 207 198 193 193 197 188 179 179 191 181 150 146 156 164 176 187 183 156 129 73 283 249 232 197 185 201 199 202 195 206 200 207 227 245 263 272 271 269 275 284 297 309
238 219 205 201 197 184 187 190 186 176 167 156 149 153 166 171 172 173 160 146 159 223 262 268 223 180 181 205 176 175 173 184 215 250 246 254 271 293 285 279 281 284 290 299
231 214 170 177 182 171 173 177 164 152 156 150 141 137 145 165 163 158 153 169 207 216 218 202 167 182 225 213 177 164 172 178 193 245 277 257 273 289 293 294 299 301 300 296
212 184 162 167 180 166 159 156 150 151 153 148 148 153 155 152 146 147 150 181 274 224 149 161 158 175 191 182 176 174 178 171 175 197 215 239 267 288 298 301 300 300 303 303
322 168 166 148 145 142 129 138 149 152 152 149 143 140 137 138 138 126 159 188 194 163 153 172 180 175 164 149 141 158 168 176 192 209 228 247 256 267 278 288 292 297 297 295
346 14 133 140 147 142 92 115 151 153 157 160 160 160 157 159 162 151 185 226 151 146 152 180 175 155 150 141 152 167 172 182 199 223 240 248 255 262 272 280 284 289 293 294
14 43 91 111 113 113 121 162 146 142 149 153 158 158 154 152 174 203 174 150 132 135 143 166 165 162 151 149 164 176 191 207 216 230 247 259 271 278 282 287 294 297 295 296
74 104 112 108 116 148 180 173 135 123 129 132 141 151 160 164 170 174 146 139 141 138 143 157 160 166 162 168 180 190 212 229 233 233 249 269 279 280 284 286 286 289 292 292
13 20 174 162 174 189 187 162 154 165 157 153 186 191 151 131 134 139 139 151 161 167 181 190 189 186 189 191 208 227 236 242 242 246 257 269 280 283 285 284 284 285 286 287
346 346 28 30 338 186 173 168 173 192 189 184 195 196 178 163 157 162 164 176 182 195 210 214 205 206 208 209 239 253 249 244 243 250 259 271 274 276 279 281 282 281 281 284